This demonstration page uses our WeatherBlox Daily Observations layout. Learn more.

Left ArrowRight Arrow

Hourly Observations for July 1, 2022

Temp ( °F °C ) Dew Point ( °F °C ) Humidity (%) Winds ( mph kmh ) Pressure ( in mb ) Visibility ( mi km ) Precip ( " mm )
12:59 am 00:59 Partly Cloudy 75 23.9 70 21.1 84 84 SSW 8 13 30.19 1022 10 16 0.00 0.00
1:59 am 01:59 Partly Cloudy 75 23.9 71 21.7 88 88 S 7 11 30.18 1022 10 16 0.00 0.00
2:59 am 02:59 Partly Cloudy 74 23.3 71 21.7 91 91 S 8 13 30.17 1022 10 16 0.00 0.00
3:59 am 03:59 Partly Cloudy 73 22.8 72 22.2 96 96 SSW 6 9 30.17 1022 10 16 0.00 0.00
4:59 am 04:59 Partly Cloudy 72 22.2 71 21.7 97 97 SSW 7 11 30.16 1022 9 14 0.00 0.00
5:59 am 05:59 Partly Cloudy with Mist and Fog 72 22.2 71 21.7 97 97 SSW 7 11 30.17 1022 6 10 0.00 0.00
6:26 am 06:26 Partly Cloudy with Mist and Fog 72 22.2 71 21.7 97 97 SSW 6 9 30.17 1022 6 10 0.00 0.00
6:59 am 06:59 Mostly Cloudy 73 22.8 72 22.2 96 96 SSW 6 9 30.18 1022 7 11 0.00 0.00
7:59 am 07:59 Mostly Cloudy 77 25 72 22.2 85 85 SSW 8 13 30.17 1022 9 14 0.00 0.00
8:59 am 08:59 Mostly Cloudy 81 27.2 73 22.8 77 77 S 7 11 30.17 1022 10 16 0.00 0.00
9:59 am 09:59 Mostly Cloudy 82 27.8 72 22.2 72 72 WSW 8 13 30.16 1021 10 16 0.00 0.00
10:59 am 10:59 Mostly Cloudy 84 28.9 71 21.7 65 65 S 3 6 30.16 1021 10 16 0.00 0.00
11:59 am 11:59 Partly Cloudy 88 31.1 69 20.6 54 54 VRB 6 9 30.15 1021 10 16 0.00 0.00
12:59 pm 12:59 Mostly Cloudy 88 31.1 67 19.4 50 50 SW 8 13 30.14 1021 10 16 0.00 0.00
1:59 pm 13:59 Partly Cloudy 90 32.2 70 21.1 52 52 VRB 6 9 30.11 1020 10 16 0.00 0.00
2:59 pm 14:59 Partly Cloudy 91 32.8 63 17.2 39 39 S 8 13 30.09 1019 10 16 0.00 0.00
3:59 pm 15:59 Partly Cloudy 90 32.2 68 20 48 48 S 10 17 30.06 1018 10 16 0.00 0.00
4:59 pm 16:59 Partly Cloudy 88 31.1 71 21.7 57 57 S 9 15 30.06 1018 10 16 0.00 0.00
5:59 pm 17:59 Partly Cloudy 87 30.6 71 21.7 59 59 S 10 17 30.06 1018 10 16 0.00 0.00
6:59 pm 18:59 Partly Cloudy 87 30.6 71 21.7 59 59 S 9 15 30.05 1018 10 16 0.00 0.00
7:59 pm 19:59 Hazy 85 29.4 71 21.7 63 63 SSW 9 15 30.04 1017 6 10 0.00 0.00
8:59 pm 20:59 Partly Cloudy 83 28.3 71 21.7 67 67 S 14 22 30.04 1017 9 14 0.00 0.00
9:59 pm 21:59 Partly Cloudy 81 27.2 71 21.7 72 72 SSW 9 15 30.06 1018 10 16 0.00 0.00
10:59 pm 22:59 Partly Cloudy 79 26.1 72 22.2 79 79 SW 7 11 30.06 1018 10 16 0.00 0.00
11:59 pm 23:59 Mostly Clear 78 25.6 72 22.2 82 82 SW 6 9 30.05 1018 10 16 0.00 0.00

Powered by AerisWeather